User: anonymous   Login
Location: Hepcat Sky Observatory
(29.9800°N, 95.6500°W)
Time: 16:46:57
(UTC-06:00)
Language:

SL-16 Debris - Orbit

View from above orbital plane
View from above orbital plane
View from above satellite
View from above satellite

Ground track
Ground track

The orbit data is extracted from the following two-line orbital elements,

1 26076U 99040E   17057.42718839  .00002347  00000-0  27832-3 0  9996
2 26076  28.4368 155.8343 4527076 128.5528 281.5145  6.44433527305513
Epoch (UTC): 26 February 2017 10:15:09
Eccentricity: 0.4527076
inclination: 28.4368°
perigee height: 297 km
apogee height: 11341 km
right ascension of ascending node: 155.8343°
argument of perigee: 128.5528°
revolutions per day: 6.44433527
mean anomaly at epoch: 281.5145°
orbit number at epoch: 30551

The dashed part of the orbit path shows where the satellite is in the earth's shadow,  

DLR